LX1BS-13 Weather Reports


time (UTC)temp
C
wind
direction
speed
KPH
gust
KPH
rain 1hr
cm
rain 24hr
cm
rain mn
cm
humidity
%
barometer
mb
20260504100104 15 128 0.0 6.4 0.00 0.08 0.00 78 1013.8
20260504081603 13 39 0.0 3.2 0.00 0.08 0.00 81 1013.7
20260504044557 7 0 0.0 3.2 0.00 0.08 0.00 94 1013.1
20260504043100 7 0 0.0 3.2 0.00 0.08 0.00 94 1013.0
20260504041559 7 0 0.0 0.0 0.00 0.08 0.00 94 1013.0
20260504040100 7 0 0.0 0.0 0.00 0.08 0.00 94 1013.0
20260504034557 7 0 0.0 1.6 0.00 0.08 0.00 94 1013.0
20260504033103 7 0 0.0 3.2 0.00 0.08 0.00 93 1013.1
20260504031603 7 0 0.0 0.0 0.00 0.08 0.00 94 1013.0
20260504030058 7 0 0.0 1.6 0.00 0.08 0.00 94 1012.8
20260504024600 7 0 0.0 1.6 0.00 0.08 0.00 93 1012.9
20260504023057 7 0 0.0 1.6 0.00 0.08 0.00 93 1013.0
20260504021559 8 0 0.0 0.0 0.00 0.08 0.00 93 1013.0
20260504020137 8 0 0.0 0.0 0.00 0.08 0.00 93 1013.1
20260504014609 8 0 0.0 1.6 0.00 0.08 0.00 93 1013.2
20260504013117 8 0 0.0 0.0 0.00 0.08 0.00 93 1013.3
20260504011600 8 0 0.0 0.0 0.00 0.08 0.00 93 1013.2
20260504010057 8 0 0.0 3.2 0.00 0.08 0.00 92 1013.2
20260504004640 8 0 0.0 1.6 0.00 0.08 0.00 92 1013.2
20260504003102 8 0 0.0 0.0 0.00 0.08 0.00 92 1013.2
20260504001622 8 0 0.0 1.6 0.00 0.08 0.00 92 1013.0
20260504000110 8 0 0.0 1.6 0.00 0.08 0.00 91 1013.1
20260503234605 9 0 0.0 1.6 0.00 0.08 0.00 91 1013.0
20260503233102 9 0 0.0 1.6 0.00 0.08 0.00 90 1012.9
20260503231559 10 0 0.0 0.0 0.00 0.08 0.00 89 1013.1
20260503230115 10 0 0.0 0.0 0.00 0.08 0.00 90 1013.2
20260503224606 10 242 0.0 3.2 0.00 0.08 0.00 90 1013.2
20260503223057 10 0 0.0 0.0 0.00 0.08 0.00 89 1013.1
20260503221604 10 0 0.0 0.0 0.00 0.08 0.00 89 1013.1
20260503220058 10 0 0.0 0.0 0.00 0.08 0.00 88 1013.1
20260503214602 10 0 0.0 3.2 0.00 0.08 0.08 88 1013.1
20260503213059 10 0 0.0 1.6 0.00 0.08 0.08 87 1012.9
20260503211559 11 0 0.0 1.6 0.00 0.08 0.08 86 1013.0
20260503210100 11 0 0.0 1.6 0.00 0.08 0.08 85 1013.2
20260503204558 11 0 0.0 1.6 0.00 0.08 0.08 85 1013.0
20260503203114 11 242 0.0 1.6 0.00 0.08 0.08 83 1013.2
20260503201600 11 0 0.0 3.2 0.00 0.08 0.08 83 1013.2
20260503200106 11 242 0.0 3.2 0.00 0.08 0.08 84 1013.2
20260503194558 12 242 0.0 4.8 0.00 0.08 0.08 83 1013.1
20260503193056 12 0 0.0 3.2 0.00 0.08 0.08 82 1013.0
20260503191559 12 296 1.6 3.2 0.00 0.08 0.08 83 1013.1
20260503190108 12 0 0.0 3.2 0.00 0.08 0.08 83 1013.0
20260503184604 13 296 0.0 3.2 0.00 0.08 0.08 84 1012.9
20260503183101 13 0 0.0 3.2 0.00 0.08 0.08 85 1012.7
20260503181605 13 301 0.0 3.2 0.00 0.08 0.08 86 1012.5
20260503180057 13 0 0.0 4.8 0.00 0.08 0.08 86 1012.4
20260503174603 13 0 0.0 3.2 0.00 0.08 0.08 87 1012.3
20260503173105 13 0 0.0 3.2 0.00 0.08 0.08 88 1012.3
20260503171604 13 0 0.0 1.6 0.00 0.08 0.08 88 1012.4